Radiation Dose at Monitoring Post of Fukushima Daini Nuclear Power Station
Date,Time,MP-1(microSv/h),MP-2(microSv/h),MP-3(microSv/h),MP-4(microSv/h),MP-5(microSv/h),MP-6(microSv/h),MP-7(microSv/h),Wind Direction,Wind Velocity(m/s),Rain
2023/11/07,00:00,0.149,0.135,0.219,0.205,0.210,0.123,0.077,south,10.9,No
2023/11/07,00:10,0.149,0.135,0.217,0.207,0.207,0.122,0.078,south,10.0,No
2023/11/07,00:20,0.148,0.135,0.217,0.205,0.209,0.122,0.077,south,9.5,No
2023/11/07,00:30,0.150,0.136,0.219,0.207,0.209,0.122,0.077,south,11.2,Yes
2023/11/07,00:40,0.148,0.133,0.218,0.207,0.208,0.122,0.077,south,9.2,Yes
2023/11/07,00:50,0.149,0.135,0.217,0.204,0.211,0.122,0.077,south,9.2,Yes
2023/11/07,01:00,0.149,0.135,0.218,0.208,0.210,0.121,0.077,south,10.7,No
2023/11/07,01:10,0.148,0.135,0.217,0.206,0.208,0.121,0.078,south,8.5,No
2023/11/07,01:20,0.149,0.135,0.219,0.205,0.211,0.122,0.077,south,10.6,Yes
2023/11/07,01:30,0.149,0.135,0.219,0.208,0.210,0.122,0.078,south,9.8,Yes
2023/11/07,01:40,0.149,0.136,0.218,0.205,0.208,0.123,0.077,south,9.2,Yes
2023/11/07,01:50,0.149,0.134,0.220,0.206,0.210,0.122,0.077,south,12.5,No
2023/11/07,02:00,0.150,0.135,0.217,0.207,0.208,0.121,0.077,south,10.3,Yes
2023/11/07,02:10,0.148,0.135,0.220,0.205,0.209,0.122,0.077,south,12.9,Yes
2023/11/07,02:20,0.149,0.135,0.218,0.207,0.210,0.122,0.077,south-southeast,11.5,Yes
2023/11/07,02:30,0.149,0.135,0.217,0.206,0.207,0.120,0.077,south,14.0,No
2023/11/07,02:40,0.148,0.136,0.219,0.205,0.212,0.123,0.078,south,11.2,No
2023/11/07,02:50,0.149,0.135,0.217,0.207,0.210,0.122,0.077,south,10.0,No
2023/11/07,03:00,0.148,0.136,0.218,0.206,0.208,0.122,0.078,south,9.5,No
2023/11/07,03:10,0.147,0.135,0.219,0.206,0.212,0.122,0.077,south,11.1,No
2023/11/07,03:20,0.150,0.134,0.217,0.208,0.209,0.123,0.077,south-southeast,10.6,No
2023/11/07,03:30,0.148,0.136,0.218,0.205,0.209,0.122,0.078,south-southeast,9.6,Yes
2023/11/07,03:40,0.148,0.135,0.219,0.206,0.210,0.123,0.077,south,11.2,Yes
2023/11/07,03:50,0.149,0.135,0.216,0.208,0.209,0.122,0.077,south-southeast,8.7,No
2023/11/07,04:00,0.149,0.134,0.219,0.205,0.209,0.122,0.077,south-southeast,9.8,No
2023/11/07,04:10,0.149,0.134,0.218,0.207,0.211,0.122,0.077,south,10.3,Yes
2023/11/07,04:20,0.150,0.135,0.218,0.208,0.209,0.122,0.078,south,8.6,Yes
2023/11/07,04:30,0.148,0.135,0.219,0.206,0.210,0.122,0.078,south,10.1,Yes
2023/11/07,04:40,0.149,0.133,0.218,0.208,0.211,0.122,0.077,south,13.1,Yes
2023/11/07,04:50,0.150,0.136,0.218,0.207,0.210,0.124,0.079,south,10.6,Yes
2023/11/07,05:00,0.149,0.135,0.218,0.207,0.210,0.123,0.078,south,8.9,Yes
2023/11/07,05:10,0.151,0.136,0.218,0.206,0.210,0.125,0.079,south,11.1,Yes
2023/11/07,05:20,0.149,0.136,0.218,0.206,0.210,0.123,0.079,south,10.9,Yes
2023/11/07,05:30,0.149,0.135,0.217,0.208,0.210,0.124,0.079,south,10.0,Yes
2023/11/07,05:40,0.149,0.137,0.218,0.204,0.209,0.124,0.080,south-southeast,10.1,Yes
2023/11/07,05:50,0.149,0.136,0.216,0.208,0.209,0.123,0.078,south-southeast,9.6,Yes
2023/11/07,06:00,0.150,0.135,0.218,0.205,0.209,0.123,0.079,south,11.5,Yes
2023/11/07,06:10,0.149,0.136,0.215,0.205,0.209,0.123,0.079,south,10.0,Yes
2023/11/07,06:20,0.148,0.136,0.217,0.206,0.211,0.123,0.078,south,13.7,Yes
2023/11/07,06:30,0.149,0.135,0.216,0.205,0.207,0.124,0.079,south,9.5,Yes
2023/11/07,06:40,0.149,0.134,0.216,0.206,0.209,0.123,0.078,south-southeast,11.7,Yes
2023/11/07,06:50,0.149,0.136,0.216,0.204,0.207,0.124,0.079,south,13.9,Yes
2023/11/07,07:00,0.147,0.135,0.215,0.206,0.209,0.124,0.078,south,11.2,Yes
2023/11/07,07:10,0.150,0.136,0.218,0.204,0.208,0.124,0.080,south,9.5,Yes
2023/11/07,07:20,0.151,0.135,0.216,0.206,0.208,0.125,0.080,south-southwest,9.5,Yes
2023/11/07,07:30,0.150,0.136,0.217,0.205,0.211,0.124,0.080,south,8.1,Yes
2023/11/07,07:40,0.152,0.137,0.215,0.206,0.208,0.126,0.080,south-southwest,9.2,Yes
2023/11/07,07:50,0.149,0.136,0.217,0.206,0.210,0.125,0.079,south-southwest,7.5,Yes
2023/11/07,08:00,0.150,0.135,0.215,0.203,0.209,0.124,0.080,southwest,8.3,Yes
2023/11/07,08:10,0.149,0.136,0.215,0.205,0.208,0.123,0.079,west,7.5,Yes
2023/11/07,08:20,0.148,0.136,0.217,0.204,0.210,0.123,0.079,west,8.3,Yes
2023/11/07,08:30,0.150,0.135,0.214,0.202,0.207,0.124,0.079,west-northwest,8.5,Yes
2023/11/07,08:40,0.150,0.137,0.215,0.204,0.209,0.124,0.079,west,10.1,Yes
2023/11/07,08:50,0.151,0.138,0.216,0.204,0.210,0.125,0.081,west,12.6,Yes
2023/11/07,09:00,0.153,0.140,0.217,0.205,0.212,0.127,0.084,west-northwest,7.7,Yes
2023/11/07,09:10,0.155,0.141,0.220,0.208,0.213,0.129,0.085,west-northwest,5.2,Yes
2023/11/07,09:20,0.153,0.140,0.216,0.205,0.213,0.127,0.085,west-northwest,6.1,Yes
2023/11/07,09:30,0.154,0.140,0.217,0.206,0.212,0.127,0.086,west,2.5,Yes
2023/11/07,09:40,0.153,0.141,0.217,0.205,0.215,0.127,0.086,north-northeast,2.6,Yes
2023/11/07,09:50,0.153,0.142,0.217,0.204,0.212,0.128,0.088,northwest,3.6,Yes
2023/11/07,10:00,0.153,0.141,0.217,0.204,0.214,0.128,0.089,northwest,4.0,Yes
2023/11/07,10:10,0.153,0.142,0.218,0.208,0.214,0.129,0.089,northwest,4.6,Yes
2023/11/07,10:20,0.154,0.142,0.218,0.208,0.215,0.127,0.087,northwest,4.9,Yes
2023/11/07,10:30,0.152,0.141,0.218,0.209,0.213,0.127,0.087,northwest,2.3,Yes
2023/11/07,10:40,0.151,0.139,0.217,0.205,0.214,0.126,0.085,northwest,0.8,Yes
2023/11/07,10:50,0.149,0.138,0.215,0.205,0.212,0.124,0.084,north-northwest,1.8,Yes
2023/11/07,11:00,0.148,0.138,0.215,0.203,0.212,0.124,0.083,north-northwest,3.3,Yes
2023/11/07,11:10,0.148,0.137,0.214,0.203,0.210,0.123,0.082,north-northwest,2.7,Yes
2023/11/07,11:20,0.150,0.138,0.217,0.206,0.213,0.124,0.083,northwest,4.6,Yes
2023/11/07,11:30,0.149,0.137,0.215,0.205,0.210,0.124,0.083,northwest,5.4,Yes
2023/11/07,11:40,0.151,0.138,0.217,0.204,0.212,0.124,0.083,northwest,4.2,Yes
2023/11/07,11:50,0.150,0.137,0.216,0.206,0.211,0.125,0.085,northwest,5.0,Yes
2023/11/07,12:00,0.151,0.138,0.216,0.206,0.214,0.125,0.084,north-northwest,4.2,Yes
2023/11/07,12:10,0.150,0.137,0.216,0.204,0.212,0.124,0.084,northwest,4.8,Yes
2023/11/07,12:20,0.150,0.137,0.215,0.205,0.213,0.123,0.083,northwest,6.2,Yes
2023/11/07,12:30,0.148,0.136,0.215,0.203,0.211,0.122,0.081,northwest,5.9,No
2023/11/07,12:40,0.148,0.136,0.214,0.203,0.211,0.122,0.081,northwest,5.9,No
2023/11/07,12:50,0.146,0.133,0.213,0.202,0.207,0.120,0.080,northwest,5.5,No
2023/11/07,13:00,0.146,0.133,0.212,0.201,0.209,0.120,0.080,northwest,4.7,No
2023/11/07,13:10,0.147,0.132,0.211,0.202,0.206,0.120,0.079,northwest,7.5,No
2023/11/07,13:20,0.145,0.132,0.211,0.199,0.209,0.120,0.078,west-northwest,6.9,No
2023/11/07,13:30,0.145,0.133,0.210,0.200,0.208,0.119,0.077,west-northwest,5.4,No
2023/11/07,13:40,0.144,0.132,0.210,0.199,0.206,0.118,0.077,west-northwest,5.7,No
2023/11/07,13:50,0.145,0.131,0.211,0.200,0.207,0.119,0.076,northwest,4.3,No
2023/11/07,14:00,0.143,0.132,0.211,0.199,0.206,0.118,0.076,west,5.1,No
2023/11/07,14:10,0.144,0.132,0.210,0.199,0.208,0.117,0.077,west-northwest,4.3,No
2023/11/07,14:20,0.143,0.132,0.209,0.199,0.205,0.118,0.076,northwest,3.8,No
2023/11/07,14:30,0.143,0.131,0.211,0.199,0.208,0.117,0.076,west,2.8,No
2023/11/07,14:40,0.143,0.131,0.209,0.197,0.205,0.117,0.076,west-northwest,4.1,No
2023/11/07,14:50,0.143,0.130,0.211,0.200,0.206,0.118,0.076,northwest,5.6,No
2023/11/07,15:00,0.144,0.131,0.209,0.198,0.206,0.119,0.075,west-northwest,4.5,No
2023/11/07,15:10,0.143,0.130,0.210,0.200,0.205,0.118,0.076,northwest,4.8,No
2023/11/07,15:20,0.145,0.131,0.209,0.198,0.207,0.117,0.075,northwest,4.1,No
2023/11/07,15:30,0.142,0.131,0.209,0.199,0.204,0.117,0.076,west,1.4,No
2023/11/07,15:40,0.145,0.131,0.210,0.200,0.206,0.117,0.076,northwest,2.5,No
2023/11/07,15:50,0.144,0.131,0.209,0.198,0.206,0.117,0.075,northwest,3.5,No
2023/11/07,16:00,0.144,0.131,0.209,0.199,0.206,0.119,0.075,west-northwest,4.9,No
2023/11/07,16:10,0.144,0.131,0.210,0.199,0.207,0.117,0.075,northwest,5.0,No
2023/11/07,16:20,0.144,0.132,0.210,0.199,0.205,0.118,0.076,northwest,6.1,No
2023/11/07,16:30,0.144,0.131,0.211,0.199,0.207,0.118,0.075,northwest,5.7,No
2023/11/07,16:40,0.143,0.131,0.210,0.199,0.206,0.118,0.075,west-northwest,4.3,No
2023/11/07,16:50,0.143,0.131,0.210,0.199,0.208,0.118,0.075,northwest,5.2,No
2023/11/07,17:00,0.144,0.132,0.210,0.200,0.206,0.117,0.075,northwest,6.4,No
2023/11/07,17:10,0.145,0.130,0.211,0.200,0.207,0.117,0.075,northwest,7.4,No
2023/11/07,17:20,0.145,0.133,0.210,0.199,0.205,0.117,0.076,northwest,6.1,No
2023/11/07,17:30,0.145,0.132,0.210,0.201,0.207,0.118,0.075,northwest,6.4,No
2023/11/07,17:40,0.144,0.131,0.211,0.199,0.207,0.118,0.076,northwest,5.6,No
2023/11/07,17:50,0.144,0.132,0.212,0.200,0.207,0.118,0.076,northwest,4.8,No
2023/11/07,18:00,0.145,0.131,0.210,0.199,0.207,0.118,0.075,northwest,3.9,No
2023/11/07,18:10,0.144,0.132,0.211,0.200,0.207,0.118,0.075,northwest,4.0,No
2023/11/07,18:20,0.145,0.130,0.211,0.200,0.207,0.118,0.076,west-northwest,4.5,No
2023/11/07,18:30,0.144,0.132,0.211,0.199,0.207,0.118,0.076,north-northwest,4.0,No
2023/11/07,18:40,0.145,0.132,0.210,0.200,0.206,0.118,0.075,north-northwest,1.9,No
2023/11/07,18:50,0.144,0.131,0.211,0.200,0.206,0.118,0.076,north,2.8,No
2023/11/07,19:00,0.145,0.132,0.212,0.201,0.207,0.118,0.075,north,3.1,No
2023/11/07,19:10,0.144,0.132,0.210,0.199,0.205,0.118,0.075,northwest,2.2,No
2023/11/07,19:20,0.145,0.131,0.210,0.200,0.208,0.118,0.076,north-northwest,3.5,No
2023/11/07,19:30,0.145,0.131,0.212,0.200,0.207,0.118,0.075,north-northwest,3.3,No
2023/11/07,19:40,0.146,0.131,0.211,0.199,0.208,0.118,0.075,northwest,8.1,No
2023/11/07,19:50,0.144,0.131,0.211,0.200,0.206,0.118,0.076,west-northwest,11.5,No
2023/11/07,20:00,0.145,0.133,0.211,0.200,0.208,0.119,0.075,west-northwest,13.4,No
2023/11/07,20:10,0.144,0.132,0.211,0.201,0.205,0.119,0.075,west-northwest,11.8,No
2023/11/07,20:20,0.146,0.131,0.212,0.200,0.207,0.118,0.075,west-northwest,16.2,No
2023/11/07,20:30,0.144,0.132,0.212,0.200,0.206,0.119,0.076,west-northwest,12.3,No
2023/11/07,20:40,0.146,0.132,0.212,0.200,0.207,0.119,0.076,west-northwest,17.2,No
2023/11/07,20:50,0.145,0.133,0.210,0.201,0.208,0.119,0.077,northwest,14.5,No
2023/11/07,21:00,0.146,0.132,0.212,0.201,0.207,0.119,0.076,west-northwest,14.7,No
2023/11/07,21:10,0.145,0.132,0.213,0.200,0.208,0.119,0.077,west-northwest,15.9,No
2023/11/07,21:20,0.146,0.132,0.211,0.202,0.207,0.120,0.077,west-northwest,13.9,No
2023/11/07,21:30,0.147,0.133,0.213,0.200,0.209,0.119,0.077,west-northwest,15.1,No
2023/11/07,21:40,0.146,0.132,0.212,0.201,0.206,0.119,0.075,northwest,14.0,No
2023/11/07,21:50,0.146,0.131,0.212,0.201,0.208,0.120,0.076,west-northwest,13.1,No
2023/11/07,22:00,0.145,0.133,0.212,0.202,0.206,0.120,0.077,west-northwest,19.5,No
2023/11/07,22:10,0.148,0.133,0.213,0.202,0.209,0.120,0.076,west-northwest,17.6,No
2023/11/07,22:20,0.147,0.133,0.213,0.200,0.206,0.120,0.077,west,18.7,No
2023/11/07,22:30,0.147,0.133,0.215,0.202,0.208,0.119,0.077,west-northwest,16.5,No
2023/11/07,22:40,0.147,0.132,0.212,0.200,0.207,0.120,0.077,-,CALM,No
2023/11/07,22:50,0.147,0.134,0.212,0.202,0.208,0.120,0.077,west-northwest,16.0,No
2023/11/07,23:00,0.147,0.133,0.214,0.200,0.209,0.120,0.076,west-northwest,11.5,No
2023/11/07,23:10,0.146,0.134,0.213,0.201,0.207,0.120,0.077,west,13.2,No
2023/11/07,23:20,0.147,0.134,0.213,0.202,0.210,0.119,0.077,west-northwest,12.0,No
2023/11/07,23:30,0.146,0.132,0.213,0.202,0.208,0.120,0.077,west-northwest,12.6,No
2023/11/07,23:40,0.148,0.134,0.212,0.203,0.208,0.121,0.077,west-northwest,10.9,No
2023/11/07,23:50,0.146,0.133,0.214,0.201,0.208,0.120,0.076,west-northwest,13.1,No
